This is the latest recevied weather packets stored in our database for station/object W5GMO. If no packets are shown the sender has not sent any weather packets the latest 10 day(s).
| Time | Temp. | Humidity | Pressure | Rain* | Wind** | Luminosity | Snow |
|---|---|---|---|---|---|---|---|
| 1788379951 | 24.44° C | 1% | 1018.2 hPa | 0 mm | - | 20 W/m² | - |
| 1788379646 | 25° C | 1% | 1018.4 hPa | 0 mm | - | 21 W/m² | - |
| 1788379342 | 25° C | 1% | 1018.4 hPa | 0 mm | - | 23 W/m² | - |
| 1788379038 | 25° C | 1% | 1018.7 hPa | 0 mm | - | 25 W/m² | - |
| 1788378737 | 25° C | 1% | 1018.5 hPa | 0 mm | - | 26 W/m² | - |
| 1788378436 | 25° C | 1% | 1018.7 hPa | 0 mm | - | 28 W/m² | - |
| 1788378132 | 24.44° C | 1% | 1018.3 hPa | 0 mm | - | 32 W/m² | - |
| 1788377827 | 24.44° C | 1% | 1018.2 hPa | 0 mm | - | 36 W/m² | - |
| 1788377522 | 24.44° C | 1% | 1017.9 hPa | 0 mm | - | 39 W/m² | - |
| 1788377221 | 24.44° C | 1% | 1018.1 hPa | 0 mm | - | 43 W/m² | - |
| 1788376921 | 24.44° C | 1% | 1017.8 hPa | 0 mm | - | 44 W/m² | - |
| 1788376615 | 24.44° C | 1% | 1017.8 hPa | 0 mm | - | 47 W/m² | - |
| 1788376315 | 24.44° C | 1% | 1017.6 hPa | 0 mm | - | 57 W/m² | - |
| 1788376010 | 24.44° C | 1% | 1017.5 hPa | 0 mm | - | 73 W/m² | - |
| 1788375705 | 23.89° C | 1% | 1017.8 hPa | 0 mm | - | 95 W/m² | - |
| 1788375401 | 23.89° C | 1% | 1017.9 hPa | 0 mm | - | 119 W/m² | - |
| 1788375097 | 23.89° C | 1% | 1018.1 hPa | 0 mm | - | 151 W/m² | - |
| 1788374792 | 23.89° C | 1% | 1018.3 hPa | 0 mm | - | 171 W/m² | - |
| 1788374488 | 23.33° C | 1% | 1018.9 hPa | 0 mm | - | 191 W/m² | - |
| 1788374184 | 23.33° C | 1% | 1018.9 hPa | 0 mm | - | 132 W/m² | - |
| 1788373880 | 23.33° C | 1% | 1019.4 hPa | 3.05 mm | - | 93 W/m² | - |
| 1788373576 | 23.33° C | 1% | 1019.6 hPa | 8.89 mm | - | 63 W/m² | - |
| 1788373272 | 23.33° C | 1% | 1019.8 hPa | 8.89 mm | - | 39 W/m² | - |
| 1788372968 | 23.33° C | 1% | 1019.7 hPa | 4.83 mm | - | 49 W/m² | - |
| 1788372667 | 23.89° C | 1% | 1019.8 hPa | 6.1 mm | - | 85 W/m² | - |
* Rain latest hour (hover to see other rain measurements)
** Current wind speed in m/s (hover to see current wind gust speed)